Stations météo

Publicité
Le Touquet, France (7003): Température de l'air & dewpoint: 28.05.2020 03:00:00 - 03.06.2020 03:00:00 (CEST)Le Touquet, France (7003): Température de l'air 5cm: 28.05.2020 03:00:00 - 03.06.2020 03:00:00 (CEST)Le Touquet, France (7003): Vitesse du vent & gusts: 28.05.2020 03:00:00 - 03.06.2020 03:00:00 (CEST)Le Touquet, France (7003): Direction du vent: 28.05.2020 03:00:00 - 03.06.2020 03:00:00 (CEST)Le Touquet, France (7003): reduced air pressure: 28.05.2020 03:00:00 - 03.06.2020 03:00:00 (CEST)Le Touquet, France (7003): visibility: 28.05.2020 03:00:00 - 03.06.2020 03:00:00 (CEST)Le Touquet, France (7003): Ensoleillement: 28.05.2020 03:00:00 - 03.06.2020 03:00:00 (CEST)Le Touquet, France (7003): Quantités de précipitations: 28.05.2020 03:00:00 - 03.06.2020 03:00:00 (CEST)
Date & Time tt [°C] td [°C] tt 5cm [°C] ff [km/h] ff [knt] fx [km/h] fx [knt] dd ppp [hPa] vv [km] sd [min] rr [mm]
03.06.2020 03:00:00 - - - - - - - - - - - -
03.06.2020 02:00:00 12,5 9,0 7,0 0 0 14 7 N 1012,4 58 0 0,0
03.06.2020 01:00:00 14,3 9,5 7,9 4 2 7 4 SSE 1012,7 60 0 0,0
03.06.2020 00:00:00 14,8 8,9 8,4 2 1 4 2 S 1013,4 43 0 0,0
02.06.2020 23:00:00 16,5 8,9 9,5 0 0 5 3 N 1013,8 40 0 0,0
02.06.2020 22:00:00 19,0 7,7 13,4 2 1 16 8 NW 1014,2 20 20 0,0
02.06.2020 21:00:00 21,1 7,3 17,3 10 5 18 10 NE 1014,3 55 57 0,0
02.06.2020 20:00:00 23,5 8,7 20,9 11 6 23 12 N 1014,5 23 46 0,0
02.06.2020 19:00:00 23,3 9,3 23,3 16 9 27 15 NW 1014,9 8 46 0,0
02.06.2020 18:00:00 24,8 8,3 30,9 18 10 28 15 NW 1015,6 6 54 0,0
02.06.2020 17:00:00 24,6 7,7 33,2 23 13 35 19 NW 1016,2 6 52 0,0
02.06.2020 16:00:00 24,9 9,2 33,8 22 12 35 19 NNW 1016,8 7 42 0,0
02.06.2020 15:00:00 24,8 11,4 40,9 28 15 36 19 NW 1017,2 9 60 0,0
02.06.2020 14:00:00 24,2 13,4 45,3 21 12 33 18 NW 1017,6 15 60 0,0
02.06.2020 13:00:00 25,5 12,3 35,7 12 7 22 12 N 1018,1 20 60 0,0
02.06.2020 12:00:00 24,2 12,5 29,2 10 5 22 12 N 1018,5 16 60 0,0
02.06.2020 11:00:00 23,1 11,5 25,0 9 5 18 10 NE 1018,8 16 60 0,0
02.06.2020 10:00:00 21,1 12,2 19,9 7 4 14 8 NE 1019,0 32 60 0,0
02.06.2020 09:00:00 19,5 11,5 15,9 10 6 15 8 NE 1019,1 41 60 0,0
02.06.2020 08:00:00 17,6 11,4 12,2 4 2 13 7 N 1019,1 20 60 0,0
02.06.2020 07:00:00 15,1 11,1 8,7 4 2 15 8 NNW 1019,2 20 40 0,0
02.06.2020 06:00:00 12,6 9,2 8,4 4 2 12 7 SW 1019,2 40 0 0,0
02.06.2020 05:00:00 14,1 9,3 8,8 3 2 11 6 W 1019,0 44 0 0,0
02.06.2020 04:00:00 14,6 9,2 9,9 3 2 20 11 E 1019,3 55 0 0,0
02.06.2020 03:00:00 15,7 9,4 11,8 9 5 29 15 ENE 1019,7 60 0 0,0
02.06.2020 02:00:00 16,4 8,9 13,7 19 10 35 19 NE 1020,0 60 0 0,0
02.06.2020 01:00:00 17,1 7,7 14,2 21 11 37 20 NE 1020,2 60 0 0,0
02.06.2020 00:00:00 17,1 7,7 14,5 22 12 39 21 NE 1020,1 60 0 0,0
01.06.2020 23:00:00 17,4 8,5 14,8 24 13 44 24 NE 1019,8 60 0 0,0
01.06.2020 22:00:00 18,4 9,7 16,1 24 13 41 22 NE 1019,4 60 19 0,0
01.06.2020 21:00:00 20,5 10,0 18,3 20 11 40 22 NNE 1019,2 9 60 0,0
01.06.2020 20:00:00 22,0 10,8 21,0 22 12 41 22 NNE 1018,9 9 60 0,0
01.06.2020 19:00:00 23,5 11,2 24,8 25 13 39 21 NE 1018,9 6 60 0,0
01.06.2020 18:00:00 24,9 11,1 30,7 23 12 37 20 NE 1019,1 11 60 0,0
01.06.2020 17:00:00 25,6 11,0 35,2 20 11 40 22 NNE 1019,3 12 60 0,0
01.06.2020 16:00:00 26,3 8,7 40,8 21 11 35 19 E 1019,7 15 60 0,0
01.06.2020 15:00:00 25,6 8,6 40,0 16 9 37 20 E 1020,1 18 60 0,0
01.06.2020 14:00:00 24,9 7,1 35,1 16 9 34 18 ENE 1020,3 13 60 0,0
01.06.2020 13:00:00 24,2 9,0 31,2 14 8 35 19 E 1020,8 11 60 0,0
01.06.2020 12:00:00 22,8 7,3 26,8 19 10 31 17 E 1021,0 12 60 0,0
01.06.2020 11:00:00 22,1 7,9 23,6 13 7 21 11 E 1021,2 16 60 0,0
01.06.2020 10:00:00 20,7 8,7 19,0 13 7 22 12 E 1021,2 17 60 0,0
01.06.2020 09:00:00 19,0 8,6 14,8 13 7 19 11 E 1021,1 14 60 0,0
01.06.2020 08:00:00 16,6 7,8 10,9 14 8 22 12 E 1020,9 14 60 0,0
01.06.2020 07:00:00 14,5 7,3 8,8 10 6 19 11 E 1020,8 13 39 0,0
01.06.2020 06:00:00 13,0 7,0 8,2 10 5 17 9 E 1020,6 60 0 0,0
01.06.2020 05:00:00 12,6 7,3 8,2 9 5 22 12 E 1020,7 60 0 0,0
01.06.2020 04:00:00 13,5 7,9 9,9 9 5 23 12 E 1020,8 60 0 0,0
01.06.2020 03:00:00 14,8 8,1 11,5 16 9 28 15 ENE 1021,0 60 0 0,0
01.06.2020 02:00:00 14,8 8,7 10,9 15 8 25 13 NE 1021,1 60 0 0,0
01.06.2020 01:00:00 14,8 8,9 11,3 13 7 24 13 NE 1021,1 60 0 0,0
01.06.2020 00:00:00 15,1 9,0 12,0 15 8 27 15 NE 1021,1 60 0 0,0
31.05.2020 23:00:00 15,9 8,9 12,9 16 8 27 15 NE 1021,0 60 0 0,0
31.05.2020 22:00:00 16,8 8,5 14,1 18 10 37 20 NE 1020,6 60 18 0,0
31.05.2020 21:00:00 18,7 8,1 16,8 19 10 39 21 NE 1020,4 10 60 0,0
31.05.2020 20:00:00 20,2 7,2 19,3 23 12 40 21 NE 1020,0 9 60 0,0
31.05.2020 19:00:00 21,4 7,2 22,6 25 14 44 24 NE 1019,8 8 60 0,0
31.05.2020 18:00:00 21,9 8,0 28,0 27 14 42 23 NNE 1019,9 9 60 0,0
31.05.2020 17:00:00 22,5 7,8 29,1 29 15 45 24 NNE 1019,9 13 53 0,0
31.05.2020 16:00:00 23,6 7,6 30,8 22 12 42 23 NNE 1020,2 25 48 0,0
31.05.2020 15:00:00 23,8 6,6 33,4 21 11 41 22 NE 1020,4 41 55 0,0
31.05.2020 14:00:00 23,9 5,7 33,9 14 7 35 19 ENE 1020,7 12 56 0,0
31.05.2020 13:00:00 23,3 5,7 32,5 21 11 40 22 E 1021,2 14 60 0,0
31.05.2020 12:00:00 22,8 4,8 26,2 18 10 32 18 E 1021,5 12 60 0,0
31.05.2020 11:00:00 21,6 6,3 22,4 15 8 28 15 E 1021,6 13 60 0,0
31.05.2020 10:00:00 20,2 5,8 18,4 15 8 23 12 E 1021,7 14 60 0,0
31.05.2020 09:00:00 18,4 7,2 14,3 14 8 22 12 E 1021,7 16 60 0,0
31.05.2020 08:00:00 16,5 7,2 11,3 11 6 18 10 E 1021,4 17 60 0,0
31.05.2020 07:00:00 14,5 6,8 8,3 13 7 22 12 E 1021,1 18 39 0,0
31.05.2020 06:00:00 12,8 6,6 8,5 9 5 19 10 E 1020,7 55 0 0,0
31.05.2020 05:00:00 13,9 7,2 9,6 12 7 21 11 E 1020,4 54 0 0,0
31.05.2020 04:00:00 14,5 7,8 9,6 12 7 20 11 E 1020,5 50 0 0,0
31.05.2020 03:00:00 14,4 8,3 10,1 10 5 22 12 E 1020,6 46 0 0,0
31.05.2020 02:00:00 15,6 8,6 11,4 16 9 27 15 ENE 1020,6 58 0 0,0
31.05.2020 01:00:00 15,8 8,0 11,5 11 6 27 14 ENE 1020,7 60 0 0,0
31.05.2020 00:00:00 16,8 7,4 12,7 15 8 31 17 NE 1020,5 60 0 0,0
30.05.2020 23:00:00 17,2 7,5 13,6 19 10 31 17 NE 1020,3 60 0 0,0
30.05.2020 22:00:00 17,7 7,7 14,4 18 10 35 19 NE 1020,1 60 17 0,0
30.05.2020 21:00:00 19,8 7,8 17,1 20 11 31 17 NE 1019,7 10 60 0,0
30.05.2020 20:00:00 21,9 7,3 20,5 21 12 37 20 NE 1019,5 23 60 0,0
30.05.2020 19:00:00 24,4 4,7 26,0 18 10 33 18 ENE 1019,4 17 60 0,0
30.05.2020 18:00:00 25,0 5,7 31,0 19 10 32 17 E 1019,8 49 60 0,0
30.05.2020 17:00:00 25,1 6,3 36,2 14 8 30 16 E 1020,1 13 57 0,0
30.05.2020 16:00:00 23,6 8,4 36,0 21 11 34 19 NW 1020,5 11 58 0,0
30.05.2020 15:00:00 23,4 10,4 41,7 21 11 36 20 NW 1020,9 15 60 0,0
30.05.2020 14:00:00 24,4 5,7 39,4 7 4 25 14 NE 1021,3 17 60 0,0
30.05.2020 13:00:00 23,7 6,0 31,9 10 5 27 15 E 1021,8 17 60 0,0
30.05.2020 12:00:00 22,9 5,3 28,3 16 9 29 16 ESE 1022,2 15 60 0,0
30.05.2020 11:00:00 22,2 6,4 23,7 16 9 27 15 ENE 1022,4 13 60 0,0
30.05.2020 10:00:00 21,0 7,9 18,4 15 8 21 11 E 1022,5 15 60 0,0
30.05.2020 09:00:00 18,7 8,9 13,9 13 7 22 12 E 1022,5 17 60 0,0
30.05.2020 08:00:00 16,3 8,3 9,8 12 7 19 10 E 1022,4 18 60 0,0
30.05.2020 07:00:00 13,5 8,3 8,1 8 4 16 9 E 1022,5 17 38 0,0
30.05.2020 06:00:00 11,9 8,7 7,8 9 5 16 9 E 1022,6 19 0 0,0
30.05.2020 05:00:00 11,4 9,1 8,4 9 5 19 10 ESE 1022,7 15 0 0,0
30.05.2020 04:00:00 12,0 9,6 8,9 10 5 23 12 ESE 1022,9 17 0 0,0
30.05.2020 03:00:00 13,0 9,6 9,8 11 6 22 12 E 1023,2 20 0 0,0
30.05.2020 02:00:00 13,8 9,0 10,1 14 8 25 14 E 1023,4 41 0 0,0
30.05.2020 01:00:00 13,7 7,9 9,7 14 8 25 14 ENE 1023,6 48 0 0,0
30.05.2020 00:00:00 14,0 7,1 10,9 14 7 35 19 ENE 1023,8 54 0 0,0
29.05.2020 23:00:00 14,3 6,6 11,6 18 10 34 19 NE 1023,7 59 0 0,0
29.05.2020 22:00:00 15,3 6,0 12,9 20 11 39 21 NE 1023,5 60 16 0,0
29.05.2020 21:00:00 17,2 5,5 15,3 22 12 36 20 NE 1023,3 14 60 0,0
29.05.2020 20:00:00 19,1 6,2 18,4 22 12 37 20 NE 1023,5 11 60 0,0
29.05.2020 19:00:00 20,8 6,7 23,1 23 13 43 23 NE 1023,7 12 60 0,0
29.05.2020 18:00:00 21,7 7,5 28,2 25 13 39 21 NE 1024,0 11 60 0,0
29.05.2020 17:00:00 23,8 3,7 36,4 16 9 36 19 E 1024,2 13 60 0,0
29.05.2020 16:00:00 23,8 3,7 39,9 18 10 34 18 E 1024,8 13 60 0,0
29.05.2020 15:00:00 23,6 4,5 39,9 20 11 36 19 E 1025,5 13 60 0,0
29.05.2020 14:00:00 22,8 3,8 33,2 17 9 31 17 E 1026,3 12 60 0,0
29.05.2020 13:00:00 22,4 5,3 30,5 18 10 32 17 E 1026,9 13 60 0,0
29.05.2020 12:00:00 21,5 7,0 28,2 17 9 29 16 E 1027,5 15 60 0,0
29.05.2020 11:00:00 20,4 8,4 22,3 12 7 21 11 E 1027,9 18 60 0,0
29.05.2020 10:00:00 18,5 7,6 16,8 11 6 24 13 E 1028,0 17 60 0,0
29.05.2020 09:00:00 16,1 6,8 12,6 13 7 27 14 E 1028,2 11 60 0,0
29.05.2020 08:00:00 13,6 6,5 9,6 18 10 29 16 E 1028,1 12 60 0,0
29.05.2020 07:00:00 12,0 6,3 7,9 14 8 25 14 E 1028,4 15 38 0,0
29.05.2020 06:00:00 11,0 6,5 7,7 14 7 23 12 E 1028,5 56 0 0,0
29.05.2020 05:00:00 11,4 7,1 7,8 13 7 23 13 E 1028,7 60 0 0,0
29.05.2020 04:00:00 11,5 7,8 7,5 14 7 24 13 E 1028,9 52 0 0,0
29.05.2020 03:00:00 11,6 8,1 8,5 10 5 28 15 ESE 1029,3 57 0 0,0
29.05.2020 02:00:00 13,2 8,3 9,7 18 10 29 16 ENE 1029,2 60 0 0,0
29.05.2020 01:00:00 13,4 8,5 10,4 16 9 30 16 ENE 1029,4 59 0 0,0
29.05.2020 00:00:00 13,7 8,1 10,7 19 11 32 17 NE 1029,6 60 0 0,0
28.05.2020 23:00:00 14,1 8,1 11,6 20 11 35 19 NE 1029,6 60 0 0,0
28.05.2020 22:00:00 14,7 8,4 12,4 19 10 35 19 NE 1029,5 58 15 0,0
28.05.2020 21:00:00 16,3 8,5 14,9 21 11 41 22 NE 1029,5 19 60 0,0
28.05.2020 20:00:00 18,4 8,1 18,0 23 12 39 21 NE 1029,6 15 60 0,0
28.05.2020 19:00:00 20,1 9,0 22,7 21 11 42 23 NE 1029,7 9 60 0,0
28.05.2020 18:00:00 21,1 9,3 27,5 23 12 41 22 NE 1030,0 10 60 0,0
28.05.2020 17:00:00 22,5 5,0 34,4 19 10 46 25 ENE 1030,3 11 60 0,0
28.05.2020 16:00:00 22,3 4,8 37,9 24 13 38 21 NE 1030,8 12 60 0,0
28.05.2020 15:00:00 22,2 3,8 37,4 24 13 41 22 E 1031,4 10 60 0,0
28.05.2020 14:00:00 21,2 3,4 32,3 21 12 39 21 ENE 1032,2 7 60 0,0
28.05.2020 13:00:00 20,2 5,4 28,0 19 10 36 20 E 1032,7 8 60 0,0
28.05.2020 12:00:00 19,2 4,9 23,6 22 12 37 20 E 1033,1 9 60 0,0
28.05.2020 11:00:00 17,5 5,4 20,3 22 12 35 19 E 1033,6 10 60 0,0
28.05.2020 10:00:00 16,5 6,9 15,7 13 7 26 14 ENE 1033,9 12 60 0,0
28.05.2020 09:00:00 14,8 6,9 12,2 17 9 27 15 ENE 1034,2 13 60 0,0
28.05.2020 08:00:00 13,5 8,3 10,0 15 8 26 14 ENE 1034,1 10 60 0,0
28.05.2020 07:00:00 11,9 10,0 7,8 10 5 19 10 ENE 1034,2 10 37 0,0
28.05.2020 06:00:00 10,8 9,7 7,4 9 5 16 9 NE 1034,2 9 0 0,0
28.05.2020 05:00:00 10,4 9,2 5,7 9 5 14 8 ENE 1034,3 12 0 0,0
28.05.2020 04:00:00 10,5 8,9 7,6 6 4 23 12 ENE 1034,5 11 0 0,0
28.05.2020 03:00:00 11,4 9,6 9,7 14 8 25 14 NE 1034,5 14 0 0,0

tt = Température de l'air
td = dewpoint
tt 5cm = Température de l'air 5cm
ff = Vitesse du vent
fx = gusts
dd = Direction du vent
ppp = reduced air pressure
vv = visibility
sd = Ensoleillement
rr = Quantités de précipitations

stations d'obs. à proximité